Weather in Chulkovo

Russia / Oryol Oblast     53°04′13″N   36°56′43″E
temp.,
°C
wind,
m/s
gust,
m/s
humid.,
%
clouds,
%
prec.,
mm/h
press.,
hPa
HPBL,
m
7 may, fri
fri700:00+7wsw2392100 1.9 101086
03:00+6w3794100 2.1 1011201
06:00+6wnw2488100 0.0 1013112
09:00+10w466681 0.0 1014734
12:00+13w45445 0.0 10141673
15:00+14sw453986 0.0 10142169
18:00+13s465799 0.0 1014361
21:00+9se4106590 0.0 1013181
8 may, sat
sat800:00+9sse61563100 0.0 1012408
03:00+9sse71765100 0.1 1010723
06:00+8sse101991100 4.4 1008879
09:00+9s101894100 10.0 1006821
12:00+10s81595100 4.7 1005949
15:00+9wsw3793100 6.6 1005373
18:00+10wsw71087100 0.3 1006825
21:00+7wsw61287100 0.4 1009882
9 may, sun
sun900:00+5wnw61092100 0.1 1011885
03:00+5wnw6127945 0.1 1015854
06:00+3nw51191100 0.0 1017514
09:00+7nw69695 0.0 10181036
12:00+10nnw785787 0.1 10201894
15:00+10nnw895392 0.2 10212077
18:00+9n510625 0.0 10231681
21:00+5n22770 0.0 102618
10 may, mon
mon1000:00+4nnw33790 0.0 102728
03:00+3nnw35795 0.0 102977
06:00+3n388013 0.0 1030169
09:00+10nne575847 0.0 1031622
12:00+12nne6848100 0.0 10301271
15:00+14ne67465 0.0 10301496
18:00+13ne58590 0.0 1029780
21:00+8ene33751 0.0 103125
11 may, tue
tue1100:00+6ne38810 0.0 1030129
03:00+5ne49820 0.0 1030154
06:00+6ne513800 0.0 1030285
09:00+12ene712610 0.0 1030655
12:00+15ene79540 0.0 1028894
15:00+17ene79580 0.0 10271073
18:00+16ene596990 0.0 1026765
21:00+11ne412855 0.0 1027237